Tracadie, Nova Scotia

10:03 AM AST on February 22, 2017 (GMT -0400)
Tracadie

Weather History for CXTD - December, 2012

Change the Weather History Date:

Tuesday, December 11, 2012

  Actual Average Record
Temperature  
Mean Temperature 48 °F -  
Max Temperature 60 °F - - ()
Min Temperature 34 °F - - ()
Degree Days  
Heating Degree Days 18    
Moisture  
Dew Point 43 °F    
Average Humidity 84    
Maximum Humidity 93    
Minimum Humidity 64    
Precipitation  
Precipitation 0.08 in - - ()
Sea Level Pressure  
Sea Level Pressure 29.65 in    
Wind  
Wind Speed 13 mph ()    
Max Wind Speed 26 mph    
Max Gust Speed 38 mph    
T = Trace of Precipitation, MM = Missing Value Source: Averaged Metar Reports

Daily Weather History Graph

Daily Weather History Graph

Search for Another Location

Airport or City:

Trip Planner

Search our weather history database for the weather conditions in past years. The results will help you decide how hot, cold, wet, or windy it might be!

Date:

Astronomy

Dec. 11, 2012 Rise Set
Actual Time 7:37 AM AST 4:22 PM AST
Civil Twilight 7:03 AM AST 4:57 PM AST
Nautical Twilight 6:25 AM AST 5:34 PM AST
Astronomical Twilight 5:49 AM AST 6:10 PM AST
Moon 5:23 AM AST (12/11) 3:00 PM AST (12/11)
Length of Visible Light 9h 53m
Length of Day
8h 45m
Waning Crescent, 4% of the Moon is Illuminated
Dec 11
Waning Crescent
Dec 13
New
Dec 20
First Quarter
Dec 28
Full
Jan 4
Last Quarter

Hourly Weather History & Observations

Time (AST) Temp. Windchill Dew Point Humidity Pressure Visibility Wind Dir Wind Speed Gust Speed Precip Events Conditions
12:00 AM 56.3 °F - 54.0 °F 92% 29.59 in - South 17.3 mph 27.6 mph N/A   Unknown
1:00 AM 57.2 °F - 54.9 °F 92% 29.53 in - South 18.4 mph 26.5 mph 0.01 in   Unknown
2:00 AM 59 °F - 57 °F 92% 29.50 in - SSW 19.6 mph - -  
2:00 AM 59.2 °F - 57.2 °F 93% 29.50 in - SSW 19.6 mph 29.9 mph 0.16 in   Unknown
3:00 AM 59.9 °F - 57.4 °F 91% 29.44 in - South 26.5 mph 38.0 mph 0.07 in   Unknown
4:00 AM 59.7 °F - 57.2 °F 91% 29.41 in - SSW 21.9 mph 33.4 mph N/A   Unknown
5:00 AM 59.2 °F - 57.0 °F 93% 29.37 in - SSW 16.1 mph 27.6 mph N/A   Unknown
6:00 AM 58.6 °F - 56.1 °F 91% 29.40 in - SW 19.6 mph 32.2 mph N/A   Unknown
7:00 AM 52.9 °F - 49.8 °F 89% 29.48 in - West 17.3 mph 29.9 mph N/A   Unknown
8:00 AM 48 °F - 46 °F 90%  in - West 8.1 mph - -  
8:00 AM 48.4 °F - 46.0 °F 92% 29.53 in - West 8.1 mph - N/A   Unknown
9:00 AM 47.5 °F - 45.0 °F 91% 29.57 in - WSW 6.9 mph - N/A   Unknown
10:00 AM 47.7 °F - 45.0 °F 90% 29.61 in - WNW 9.2 mph - N/A   Unknown
11:00 AM 45.9 °F 40.8 °F 41.7 °F 85% 29.65 in - West 10.4 mph - N/A   Unknown
12:00 PM 43.5 °F 36.7 °F 38.7 °F 83% 29.67 in - NW 13.8 mph 20.7 mph N/A   Unknown
1:00 PM 44.6 °F 42.2 °F 38.3 °F 79% 29.65 in - West 4.6 mph - N/A   Unknown
2:00 PM 44 °F - 36 °F 64% 29.67 in - NW 8.1 mph - -  
2:00 PM 43.5 °F 38.9 °F 35.8 °F 74% 29.67 in - NW 8.1 mph - N/A   Unknown
3:00 PM 41.9 °F 36.3 °F 36.1 °F 80% 29.71 in - NW 9.2 mph - N/A   Unknown
4:00 PM 39.7 °F 33.7 °F 33.6 °F 79% 29.74 in - WNW 9.2 mph 17.3 mph N/A   Unknown
5:00 PM 39.2 °F 33.0 °F 33.8 °F 81% 29.77 in - WNW 9.2 mph - N/A   Unknown
6:00 PM 38.7 °F 32.9 °F 33.6 °F 82% 29.81 in - WNW 8.1 mph - N/A   Unknown
7:00 PM 37.6 °F 31.6 °F 31.3 °F 78% 29.84 in - West 8.1 mph - N/A   Unknown
8:00 PM 37 °F - 31 °F 73% 29.86 in - WNW 10.4 mph - -  
8:00 PM 37.0 °F 29.8 °F 31.5 °F 80% 29.86 in - WNW 10.4 mph - N/A   Unknown
9:00 PM 36.3 °F 28.0 °F 30.6 °F 80% 29.87 in - WNW 12.7 mph - N/A   Unknown
10:00 PM 35.4 °F 26.8 °F 28.9 °F 77% 29.89 in - WNW 12.7 mph 19.6 mph N/A   Unknown
11:00 PM 34.3 °F 25.0 °F 27.3 °F 76% 29.91 in - WNW 13.8 mph 19.6 mph N/A   Unknown